Time,TemperatureF,DewpointF,PressureIn,WindDirection,WindDirectionDegrees,WindSpeedMPH,WindSpeedGustMPH,Humidity,HourlyPrecipIn,Conditions,Clouds,dailyrainin,SolarRadiationWatts/m^2,SoftwareType,DateUTC
2013-01-24 00:00:00,38.3,-2.8,30.02,SSW,206,4.0,4.0,17,0.00,,,0.00,0,Wunderground v.1.15,2013-01-24 07:00:00,
2013-01-24 00:05:00,38.5,-3.9,30.00,SW,223,4.0,6.0,16,0.00,,,0.00,0,Wunderground v.1.15,2013-01-24 07:05:00,
2013-01-24 00:15:00,38.9,-2.3,30.00,South,175,4.0,9.0,17,0.00,,,0.00,0,Wunderground v.1.15,2013-01-24 07:15:00,
2013-01-24 00:25:00,39.2,-3.3,29.94,SSW,205,4.0,7.0,16,0.00,,,0.00,0,Wunderground v.1.15,2013-01-24 07:25:00,
2013-01-24 00:30:00,39.3,-2.0,29.94,South,185,4.0,4.0,17,0.00,,,0.00,0,Wunderground v.1.15,2013-01-24 07:30:00,
2013-01-24 00:40:00,39.3,-2.0,29.93,SW,232,5.0,5.0,17,0.00,,,0.00,0,Wunderground v.1.15,2013-01-24 07:40:00,
2013-01-24 00:50:00,39.3,-0.8,29.92,South,185,5.0,8.0,18,0.00,,,0.00,0,Wunderground v.1.15,2013-01-24 07:50:00,
2013-01-24 00:55:00,39.2,-2.1,29.92,SW,215,6.0,8.0,17,0.00,,,0.00,0,Wunderground v.1.15,2013-01-24 07:55:00,
2013-01-24 01:05:00,39.1,-2.1,29.92,South,179,4.0,5.0,17,0.00,,,0.00,0,Wunderground v.1.15,2013-01-24 08:05:00,
2013-01-24 01:15:00,39.1,-2.1,29.92,SSE,168,6.0,6.0,17,0.00,,,0.00,0,Wunderground v.1.15,2013-01-24 08:15:00,
2013-01-24 01:20:00,39.1,-2.1,29.91,SSE,160,6.0,6.0,17,0.00,,,0.00,0,Wunderground v.1.15,2013-01-24 08:20:00,
2013-01-24 01:30:00,39.1,-3.4,29.91,SSW,205,6.0,6.0,16,0.00,,,0.00,0,Wunderground v.1.15,2013-01-24 08:30:00,
2013-01-24 01:35:00,39.1,-2.1,29.90,SSW,208,6.0,6.0,17,0.00,,,0.00,0,Wunderground v.1.15,2013-01-24 08:35:00,
2013-01-24 01:44:00,38.9,-2.3,29.90,SSE,160,4.0,9.0,17,0.00,,,0.00,0,Wunderground v.1.15,2013-01-24 08:44:00,
2013-01-24 01:50:00,38.9,-2.3,29.90,SSE,155,6.0,6.0,17,0.00,,,0.00,0,Wunderground v.1.15,2013-01-24 08:50:00,
2013-01-24 01:55:00,38.8,-2.4,29.90,SSE,154,6.0,6.0,17,0.00,,,0.00,0,Wunderground v.1.15,2013-01-24 08:55:00,
2013-01-24 02:05:00,38.6,-2.5,29.90,SE,144,6.0,6.0,17,0.00,,,0.00,0,Wunderground v.1.15,2013-01-24 09:05:00,
2013-01-24 02:14:00,38.5,-2.6,29.90,SE,144,6.0,6.0,17,0.00,,,0.00,0,Wunderground v.1.15,2013-01-24 09:14:00,
2013-01-24 02:20:00,38.5,-3.9,29.92,SSE,148,6.0,9.0,16,0.00,,,0.00,0,Wunderground v.1.15,2013-01-24 09:20:00,
2013-01-24 02:30:00,38.6,-2.5,29.92,South,188,5.0,5.0,17,0.00,,,0.00,0,Wunderground v.1.15,2013-01-24 09:30:00,
2013-01-24 02:40:00,38.6,-3.8,29.91,SSE,167,5.0,5.0,16,0.00,,,0.00,0,Wunderground v.1.15,2013-01-24 09:40:00,
2013-01-24 02:45:00,38.6,-2.5,29.91,SSE,162,5.0,6.0,17,0.00,,,0.00,0,Wunderground v.1.15,2013-01-24 09:45:00,
2013-01-24 02:55:00,38.3,-1.6,29.90,South,175,4.0,5.0,18,0.00,,,0.00,0,Wunderground v.1.15,2013-01-24 09:55:00,
2013-01-24 03:00:00,38.2,-4.1,29.90,SSW,203,3.0,6.0,16,0.00,,,0.00,0,Wunderground v.1.15,2013-01-24 10:00:00,
2013-01-24 03:05:00,38.0,-4.3,29.90,SE,145,4.0,10.0,16,0.00,,,0.00,0,Wunderground v.1.15,2013-01-24 10:05:00,
2013-01-24 03:15:00,37.9,-4.4,29.90,SSW,192,5.0,10.0,16,0.00,,,0.00,0,Wunderground v.1.15,2013-01-24 10:15:00,
2013-01-24 03:25:00,37.8,-3.2,29.92,South,174,5.0,7.0,17,0.00,,,0.00,0,Wunderground v.1.15,2013-01-24 10:25:00,
2013-01-24 03:35:00,37.6,-3.4,29.91,SSE,167,4.0,6.0,17,0.00,,,0.00,0,Wunderground v.1.15,2013-01-24 10:35:00,
2013-01-24 03:40:00,37.5,-3.5,29.91,South,184,5.0,6.0,17,0.00,,,0.00,0,Wunderground v.1.15,2013-01-24 10:40:00,
2013-01-24 03:50:00,37.2,-3.7,29.92,SSE,162,5.0,5.0,17,0.00,,,0.00,0,Wunderground v.1.15,2013-01-24 10:50:00,
2013-01-24 04:00:00,37.0,-2.7,29.92,East,82,3.0,8.0,18,0.00,,,0.00,0,Wunderground v.1.15,2013-01-24 11:00:00,
2013-01-24 04:05:00,36.9,0.5,29.92,South,178,5.0,8.0,21,0.00,,,0.00,0,Wunderground v.1.15,2013-01-24 11:05:00,
2013-01-24 04:14:00,36.6,-3.0,29.92,SE,136,4.0,9.0,18,0.00,,,0.00,0,Wunderground v.1.15,2013-01-24 11:14:00,
2013-01-24 04:20:00,36.5,-1.9,29.93,SE,137,6.0,13.0,19,0.00,,,0.00,0,Wunderground v.1.15,2013-01-24 11:20:00,
2013-01-24 04:30:00,36.5,-0.9,29.93,SSE,150,7.0,7.0,20,0.00,,,0.00,0,Wunderground v.1.15,2013-01-24 11:30:00,
2013-01-24 04:35:00,36.3,-2.1,29.95,WSW,248,7.0,7.0,19,0.00,,,0.00,0,Wunderground v.1.15,2013-01-24 11:35:00,
2013-01-24 04:45:00,36.3,-1.0,29.95,SSW,206,5.0,13.0,20,0.00,,,0.00,0,Wunderground v.1.15,2013-01-24 11:45:00,
2013-01-24 04:55:00,36.5,-3.1,29.95,SSE,157,4.0,7.0,18,0.00,,,0.00,0,Wunderground v.1.15,2013-01-24 11:55:00,
2013-01-24 05:05:00,36.8,-1.7,29.92,South,178,6.0,8.0,19,0.00,,,0.00,0,Wunderground v.1.15,2013-01-24 12:05:00,
2013-01-24 05:15:00,37.2,-2.5,29.92,SSE,152,6.0,16.0,18,0.00,,,0.00,0,Wunderground v.1.15,2013-01-24 12:15:00,
2013-01-24 05:20:00,37.6,-3.4,29.93,SE,133,6.0,6.0,17,0.00,,,0.00,0,Wunderground v.1.15,2013-01-24 12:20:00,
2013-01-24 05:30:00,37.9,-1.9,29.93,ESE,110,4.0,4.0,18,0.00,,,0.00,0,Wunderground v.1.15,2013-01-24 12:30:00,
2013-01-24 05:40:00,37.9,-0.8,29.94,SSE,154,2.0,2.0,19,0.00,,,0.00,0,Wunderground v.1.15,2013-01-24 12:40:00,
2013-01-24 05:45:00,37.6,-4.6,29.94,West,274,6.0,7.0,16,0.00,,,0.00,0,Wunderground v.1.15,2013-01-24 12:45:00,
2013-01-24 05:55:00,37.8,-3.2,29.94,SE,144,7.0,9.0,17,0.00,,,0.00,0,Wunderground v.1.15,2013-01-24 12:55:00,
2013-01-24 06:05:00,37.8,-0.9,29.93,SSE,162,6.0,8.0,19,0.00,,,0.00,0,Wunderground v.1.15,2013-01-24 13:05:00,
2013-01-24 06:15:00,37.8,-2.0,29.93,ESE,112,7.0,13.0,18,0.00,,,0.00,0,Wunderground v.1.15,2013-01-24 13:15:00,
2013-01-24 06:25:00,37.9,-1.9,29.92,West,272,6.0,7.0,18,0.00,,,0.00,0,Wunderground v.1.15,2013-01-24 13:25:00,
2013-01-24 06:35:00,37.8,-3.2,29.93,SSW,213,4.0,6.0,17,0.00,,,0.00,0,Wunderground v.1.15,2013-01-24 13:35:00,
2013-01-24 06:40:00,37.6,-2.2,29.93,ESE,109,6.0,6.0,18,0.00,,,0.00,0,Wunderground v.1.15,2013-01-24 13:40:00,
2013-01-24 06:50:00,37.5,-1.1,29.92,SSE,162,5.0,9.0,19,0.00,,,0.00,0,Wunderground v.1.15,2013-01-24 13:50:00,
2013-01-24 07:00:00,37.5,-1.1,29.92,South,188,3.0,3.0,19,0.00,,,0.00,0,Wunderground v.1.15,2013-01-24 14:00:00,
2013-01-24 07:05:00,37.5,-1.1,29.91,SE,140,5.0,5.0,19,0.00,,,0.00,0,Wunderground v.1.15,2013-01-24 14:05:00,
2013-01-24 07:14:00,37.5,-3.5,29.91,South,182,6.0,6.0,17,0.00,,,0.00,0,Wunderground v.1.15,2013-01-24 14:14:00,
2013-01-24 07:20:00,37.6,-3.4,29.95,SSE,147,7.0,7.0,17,0.00,,,0.00,0,Wunderground v.1.15,2013-01-24 14:20:00,
2013-01-24 07:25:00,37.8,-2.0,29.95,SE,141,5.0,7.0,18,0.00,,,0.00,0,Wunderground v.1.15,2013-01-24 14:25:00,
2013-01-24 07:35:00,37.9,-1.9,29.94,ESE,121,6.0,7.0,18,0.00,,,0.00,0,Wunderground v.1.15,2013-01-24 14:35:00,
2013-01-24 07:45:00,38.3,-2.8,29.94,WSW,253,6.0,14.0,17,0.00,,,0.00,14,Wunderground v.1.15,2013-01-24 14:45:00,
2013-01-24 07:50:00,38.6,-1.3,29.91,West,275,5.0,5.0,18,0.00,,,0.00,12,Wunderground v.1.15,2013-01-24 14:50:00,
2013-01-24 08:00:00,38.8,-2.4,29.91,SSW,203,5.0,6.0,17,0.00,,,0.00,16,Wunderground v.1.15,2013-01-24 15:00:00,
2013-01-24 08:05:00,38.9,-2.3,29.92,West,277,4.0,6.0,17,0.00,,,0.00,14,Wunderground v.1.15,2013-01-24 15:05:00,
2013-01-24 08:15:00,39.1,3.4,29.92,SE,137,2.0,3.0,22,0.00,,,0.00,28,Wunderground v.1.15,2013-01-24 15:15:00,
2013-01-24 08:20:00,39.1,-2.1,29.92,ENE,75,2.0,2.0,17,0.00,,,0.00,26,Wunderground v.1.15,2013-01-24 15:20:00,
2013-01-24 08:30:00,39.3,1.5,29.92,SE,144,2.0,4.0,20,0.00,,,0.00,37,Wunderground v.1.15,2013-01-24 15:30:00,
2013-01-24 08:40:00,39.5,0.6,29.92,South,186,3.0,3.0,19,0.00,,,0.00,37,Wunderground v.1.15,2013-01-24 15:40:00,
2013-01-24 08:50:00,39.5,0.6,29.91,ESE,123,2.0,2.0,19,0.00,,,0.00,37,Wunderground v.1.15,2013-01-24 15:50:00,
2013-01-24 09:00:00,39.6,-1.7,29.91,South,189,3.0,3.0,17,0.00,,,0.00,33,Wunderground v.1.15,2013-01-24 16:00:00,
2013-01-24 09:05:00,39.8,-1.6,29.89,SSE,165,2.0,3.0,17,0.00,,,0.00,44,Wunderground v.1.15,2013-01-24 16:05:00,
2013-01-24 09:14:00,39.9,0.9,29.89,SSW,192,5.0,9.0,19,0.00,,,0.00,40,Wunderground v.1.15,2013-01-24 16:14:00,
2013-01-24 09:20:00,40.1,-0.1,29.92,West,261,6.0,7.0,18,0.00,,,0.00,37,Wunderground v.1.15,2013-01-24 16:20:00,
2013-01-24 09:30:00,40.3,1.2,29.92,SW,227,5.0,5.0,19,0.00,,,0.00,53,Wunderground v.1.15,2013-01-24 16:30:00,
2013-01-24 09:35:00,40.6,1.5,29.91,SE,141,4.0,5.0,19,0.00,,,0.00,62,Wunderground v.1.15,2013-01-24 16:35:00,
2013-01-24 09:45:00,40.9,2.8,29.91,WSW,248,6.0,6.0,20,0.00,,,0.00,69,Wunderground v.1.15,2013-01-24 16:45:00,
2013-01-24 09:50:00,41.1,1.9,29.93,West,280,7.0,7.0,19,0.00,,,0.00,62,Wunderground v.1.15,2013-01-24 16:50:00,
2013-01-24 09:59:00,41.2,2.0,29.93,SE,128,6.0,6.0,19,0.00,,,0.00,97,Wunderground v.1.15,2013-01-24 16:59:00,
2013-01-24 10:05:00,41.3,2.1,29.92,West,263,5.0,7.0,19,0.00,,,0.00,86,Wunderground v.1.15,2013-01-24 17:05:00,
2013-01-24 10:15:00,41.5,2.2,29.92,West,261,4.0,5.0,19,0.00,,,0.00,102,Wunderground v.1.15,2013-01-24 17:15:00,
2013-01-24 10:25:00,41.6,1.1,29.92,SE,141,3.0,6.0,18,0.00,,,0.00,100,Wunderground v.1.15,2013-01-24 17:25:00,
2013-01-24 10:35:00,42.8,0.9,29.92,South,174,6.0,8.0,17,0.00,,,0.00,114,Wunderground v.1.15,2013-01-24 17:35:00,
2013-01-24 10:45:00,43.2,2.5,29.92,ESE,112,7.0,14.0,18,0.00,,,0.00,354,Wunderground v.1.15,2013-01-24 17:45:00,
2013-01-24 10:55:00,43.3,5.9,29.92,NNW,337,4.0,7.0,21,0.00,,,0.00,209,Wunderground v.1.15,2013-01-24 17:55:00,
2013-01-24 11:05:00,43.8,5.3,29.89,NW,309,9.0,21.0,20,0.00,,,0.00,44,Wunderground v.1.15,2013-01-24 18:05:00,
2013-01-24 11:15:00,43.9,4.2,29.89,SW,233,7.0,9.0,19,0.00,,,0.00,134,Wunderground v.1.15,2013-01-24 18:15:00,
2013-01-24 11:25:00,44.1,3.2,29.89,NNW,335,9.0,9.0,18,0.00,,,0.00,39,Wunderground v.1.15,2013-01-24 18:25:00,
2013-01-24 11:35:00,44.2,3.3,29.88,WSW,256,9.0,9.0,18,0.00,,,0.00,44,Wunderground v.1.15,2013-01-24 18:35:00,
2013-01-24 11:45:00,44.3,2.1,29.88,South,182,9.0,10.0,17,0.00,,,0.00,42,Wunderground v.1.15,2013-01-24 18:45:00,
2013-01-24 11:55:00,44.5,3.5,29.86,South,181,11.0,11.0,18,0.00,,,0.00,58,Wunderground v.1.15,2013-01-24 18:55:00,
2013-01-24 12:05:00,44.5,4.7,29.85,WSW,258,9.0,9.0,19,0.00,,,0.00,48,Wunderground v.1.15,2013-01-24 19:05:00,
2013-01-24 12:15:00,44.5,4.7,29.85,West,277,12.0,12.0,19,0.00,,,0.00,51,Wunderground v.1.15,2013-01-24 19:15:00,
2013-01-24 12:25:00,44.6,7.0,29.83,West,274,10.0,13.0,21,0.00,,,0.00,84,Wunderground v.1.15,2013-01-24 19:25:00,
2013-01-24 12:30:00,44.6,7.0,29.83,WNW,296,9.0,9.0,21,0.00,,,0.00,90,Wunderground v.1.15,2013-01-24 19:30:00,
2013-01-24 12:40:00,44.8,7.2,29.83,SW,236,11.0,11.0,21,0.00,,,0.00,44,Wunderground v.1.15,2013-01-24 19:40:00,
2013-01-24 12:45:00,44.8,7.2,29.83,NNW,344,10.0,11.0,21,0.00,,,0.00,51,Wunderground v.1.15,2013-01-24 19:45:00,
2013-01-24 12:55:00,44.9,8.3,29.81,West,274,6.0,22.0,22,0.00,,,0.00,46,Wunderground v.1.15,2013-01-24 19:55:00,
2013-01-24 13:05:00,44.9,9.3,29.79,South,184,9.0,15.0,23,0.00,,,0.00,37,Wunderground v.1.15,2013-01-24 20:05:00,
2013-01-24 13:15:00,44.8,11.9,29.79,South,169,10.0,13.0,26,0.00,,,0.00,74,Wunderground v.1.15,2013-01-24 20:15:00,
2013-01-24 13:25:00,44.5,14.2,29.79,WNW,299,14.0,14.0,29,0.00,,,0.00,51,Wunderground v.1.15,2013-01-24 20:25:00,
2013-01-24 13:35:00,43.6,17.0,29.78,WNW,287,14.0,16.0,34,0.00,,,0.00,40,Wunderground v.1.15,2013-01-24 20:35:00,
2013-01-24 13:44:00,43.1,17.3,29.78,SW,216,14.0,20.0,35,0.00,,,0.00,132,Wunderground v.1.15,2013-01-24 20:44:00,
2013-01-24 13:50:00,42.9,17.7,29.80,NNE,14,15.0,15.0,36,0.00,,,0.00,44,Wunderground v.1.15,2013-01-24 20:50:00,
2013-01-24 14:00:00,42.8,18.9,29.80,NW,319,13.0,13.0,38,0.00,,,0.00,39,Wunderground v.1.15,2013-01-24 21:00:00,
2013-01-24 14:05:00,42.6,19.3,29.79,NE,34,15.0,15.0,39,0.00,,,0.00,42,Wunderground v.1.15,2013-01-24 21:05:00,
2013-01-24 14:10:00,42.5,19.3,29.79,NW,312,16.0,16.0,39,0.00,,,0.00,35,Wunderground v.1.15,2013-01-24 21:10:00,
2013-01-24 14:20:00,42.2,20.2,29.82,NW,316,14.0,14.0,41,0.00,,,0.00,30,Wunderground v.1.15,2013-01-24 21:20:00,
2013-01-24 14:29:00,41.9,20.4,29.82,WSW,240,14.0,14.0,42,0.00,,,0.00,33,Wunderground v.1.15,2013-01-24 21:29:00,
2013-01-24 14:35:00,41.8,21.5,29.82,North,0,14.0,14.0,44,0.00,,,0.00,33,Wunderground v.1.15,2013-01-24 21:35:00,
2013-01-24 14:45:00,41.5,20.6,29.82,SSW,206,12.0,23.0,43,0.00,,,0.00,127,Wunderground v.1.15,2013-01-24 21:45:00,
2013-01-24 14:54:00,41.3,21.0,29.82,WNW,288,14.0,18.0,44,0.00,,,0.00,26,Wunderground v.1.15,2013-01-24 21:54:00,
2013-01-24 15:00:00,41.2,21.4,29.82,WSW,257,15.0,15.0,45,0.00,,,0.00,26,Wunderground v.1.15,2013-01-24 22:00:00,
2013-01-24 15:05:00,41.1,20.8,29.82,West,277,16.0,16.0,44,0.00,,,0.00,25,Wunderground v.1.15,2013-01-24 22:05:00,
2013-01-24 15:14:00,40.9,21.2,29.82,SW,224,14.0,15.0,45,0.00,,,0.00,21,Wunderground v.1.15,2013-01-24 22:14:00,
2013-01-24 15:20:00,40.8,21.6,29.83,WSW,258,14.0,14.0,46,0.00,,,0.00,18,Wunderground v.1.15,2013-01-24 22:20:00,
2013-01-24 15:25:00,40.5,21.3,29.83,NW,315,12.0,14.0,46,0.00,,,0.00,19,Wunderground v.1.15,2013-01-24 22:25:00,
2013-01-24 15:35:00,40.2,22.1,29.86,North,354,13.0,17.0,48,0.00,,,0.00,16,Wunderground v.1.15,2013-01-24 22:35:00,
2013-01-24 15:45:00,39.8,22.2,29.86,North,0,11.0,14.0,49,0.00,,,0.00,11,Wunderground v.1.15,2013-01-24 22:45:00,
2013-01-24 15:55:00,39.5,21.9,29.87,North,0,10.0,11.0,49,0.00,,,0.00,11,Wunderground v.1.15,2013-01-24 22:55:00,
2013-01-24 16:05:00,39.2,22.1,29.87,West,278,13.0,17.0,50,0.00,,,0.00,9,Wunderground v.1.15,2013-01-24 23:05:00,
2013-01-24 16:15:00,38.9,22.3,29.87,North,349,13.0,15.0,51,0.00,,,0.00,9,Wunderground v.1.15,2013-01-24 23:15:00,
2013-01-24 16:25:00,38.6,22.9,29.88,SW,216,15.0,20.0,53,0.00,,,0.00,5,Wunderground v.1.15,2013-01-24 23:25:00,
2013-01-24 16:30:00,38.5,22.8,29.88,WNW,302,16.0,26.0,53,0.00,,,0.00,0,Wunderground v.1.15,2013-01-24 23:30:00,
2013-01-24 16:40:00,38.3,22.6,29.88,NNW,333,15.0,15.0,53,0.00,,,0.00,0,Wunderground v.1.15,2013-01-24 23:40:00,
2013-01-24 16:50:00,38.2,23.0,29.88,West,261,14.0,14.0,54,0.00,,,0.00,0,Wunderground v.1.15,2013-01-24 23:50:00,
2013-01-24 17:00:00,38.0,23.3,29.88,SW,230,17.0,31.0,55,0.00,,,0.00,0,Wunderground v.1.15,2013-01-25 00:00:00,
2013-01-24 17:05:00,37.9,23.2,29.88,North,356,16.0,31.0,55,0.00,,,0.00,0,Wunderground v.1.15,2013-01-25 00:05:00,
2013-01-24 17:15:00,37.8,23.5,29.88,NNE,30,15.0,17.0,56,0.00,,,0.00,0,Wunderground v.1.15,2013-01-25 00:15:00,
2013-01-24 17:25:00,37.6,23.3,29.86,NW,311,19.0,19.0,56,0.00,,,0.00,0,Wunderground v.1.15,2013-01-25 00:25:00,
2013-01-24 17:35:00,37.6,24.1,29.85,NW,308,15.0,18.0,58,0.00,,,0.00,0,Wunderground v.1.15,2013-01-25 00:35:00,
2013-01-24 17:44:00,37.3,24.3,29.85,WNW,292,16.0,18.0,59,0.00,,,0.00,0,Wunderground v.1.15,2013-01-25 00:44:00,
2013-01-24 17:50:00,37.2,24.2,29.89,WNW,295,17.0,17.0,59,0.00,,,0.00,0,Wunderground v.1.15,2013-01-25 00:50:00,
2013-01-24 18:00:00,37.0,24.0,29.89,West,277,16.0,22.0,59,0.00,,,0.00,0,Wunderground v.1.15,2013-01-25 01:00:00,
2013-01-24 18:05:00,37.0,24.0,29.90,West,275,17.0,26.0,59,0.00,,,0.00,0,Wunderground v.1.15,2013-01-25 01:05:00,
2013-01-24 18:15:00,37.0,24.0,29.90,NW,305,18.0,29.0,59,0.00,,,0.00,0,Wunderground v.1.15,2013-01-25 01:15:00,
2013-01-24 18:25:00,37.0,24.4,29.91,WSW,239,14.0,29.0,60,0.00,,,0.00,0,Wunderground v.1.15,2013-01-25 01:25:00,
2013-01-24 18:34:00,36.8,24.6,29.92,NW,320,16.0,28.0,61,0.00,,,0.00,0,Wunderground v.1.15,2013-01-25 01:34:00,
2013-01-24 18:40:00,36.8,24.6,29.92,NNW,340,13.0,13.0,61,0.00,,,0.00,0,Wunderground v.1.15,2013-01-25 01:40:00,
2013-01-24 18:50:00,36.5,25.1,29.93,NW,326,11.0,20.0,63,0.00,,,0.00,0,Wunderground v.1.15,2013-01-25 01:50:00,
2013-01-24 19:00:00,36.3,24.9,29.93,North,0,12.0,13.0,63,0.00,,,0.00,0,Wunderground v.1.15,2013-01-25 02:00:00,
2013-01-24 19:05:00,36.2,24.8,29.94,North,8,12.0,13.0,63,0.00,,,0.00,0,Wunderground v.1.15,2013-01-25 02:05:00,
2013-01-24 19:14:00,36.2,24.8,29.94,NW,311,11.0,12.0,63,0.00,,,0.00,0,Wunderground v.1.15,2013-01-25 02:14:00,
2013-01-24 19:20:00,36.2,24.4,29.95,North,0,10.0,10.0,62,0.00,,,0.00,0,Wunderground v.1.15,2013-01-25 02:20:00,
2013-01-24 19:25:00,36.2,24.4,29.95,NNE,13,9.0,10.0,62,0.00,,,0.00,0,Wunderground v.1.15,2013-01-25 02:25:00,
2013-01-24 19:35:00,36.2,24.8,29.96,NNW,343,9.0,17.0,63,0.00,,,0.00,0,Wunderground v.1.15,2013-01-25 02:35:00,
2013-01-24 19:45:00,36.0,24.6,29.96,North,356,8.0,10.0,63,0.00,,,0.00,0,Wunderground v.1.15,2013-01-25 02:45:00,
2013-01-24 19:50:00,36.0,24.6,29.96,NW,323,8.0,8.0,63,0.00,,,0.00,0,Wunderground v.1.15,2013-01-25 02:50:00,
2013-01-24 19:59:00,35.9,24.5,29.96,NNW,339,10.0,15.0,63,0.00,,,0.00,0,Wunderground v.1.15,2013-01-25 02:59:00,
2013-01-24 20:05:00,35.9,24.5,29.94,WNW,284,10.0,15.0,63,0.00,,,0.00,0,Wunderground v.1.15,2013-01-25 03:05:00,
2013-01-24 20:15:00,36.0,24.2,29.94,NW,308,12.0,20.0,62,0.00,,,0.00,0,Wunderground v.1.15,2013-01-25 03:15:00,
2013-01-24 20:25:00,36.2,24.0,29.91,West,272,14.0,14.0,61,0.00,,,0.00,0,Wunderground v.1.15,2013-01-25 03:25:00,
2013-01-24 20:30:00,36.2,23.6,29.91,ESE,120,14.0,14.0,60,0.00,,,0.00,0,Wunderground v.1.15,2013-01-25 03:30:00,
2013-01-24 20:40:00,36.5,23.5,29.91,North,349,13.0,15.0,59,0.00,,,0.00,0,Wunderground v.1.15,2013-01-25 03:40:00,
2013-01-24 20:50:00,36.8,23.0,29.94,NNW,336,14.0,15.0,57,0.00,,,0.00,0,Wunderground v.1.15,2013-01-25 03:50:00,
2013-01-24 21:00:00,36.8,23.0,29.94,NE,34,4.0,4.0,57,0.00,,,0.00,0,Wunderground v.1.15,2013-01-25 04:00:00,
2013-01-24 21:05:00,36.6,22.4,29.97,ESE,123,5.0,5.0,56,0.00,,,0.00,0,Wunderground v.1.15,2013-01-25 04:05:00,
2013-01-24 21:14:00,36.8,22.6,29.97,NE,37,6.0,6.0,56,0.00,,,0.00,0,Wunderground v.1.15,2013-01-25 04:14:00,
2013-01-24 21:20:00,36.8,22.6,29.95,NE,44,5.0,8.0,56,0.00,,,0.00,0,Wunderground v.1.15,2013-01-25 04:20:00,
2013-01-24 21:25:00,36.6,22.4,29.95,ESE,110,4.0,8.0,56,0.00,,,0.00,0,Wunderground v.1.15,2013-01-25 04:25:00,
2013-01-24 21:35:00,36.6,22.8,29.95,ESE,113,3.0,8.0,57,0.00,,,0.00,0,Wunderground v.1.15,2013-01-25 04:35:00,
2013-01-24 21:45:00,36.3,22.9,29.95,West,261,5.0,10.0,58,0.00,,,0.00,0,Wunderground v.1.15,2013-01-25 04:45:00,
2013-01-24 21:55:00,36.2,23.2,29.97,SSE,164,5.0,5.0,59,0.00,,,0.00,0,Wunderground v.1.15,2013-01-25 04:55:00,
2013-01-24 22:05:00,36.0,23.0,29.95,SE,130,4.0,6.0,59,0.00,,,0.00,0,Wunderground v.1.15,2013-01-25 05:05:00,
2013-01-24 22:15:00,35.9,23.4,29.95,NNW,335,10.0,20.0,60,0.00,,,0.00,0,Wunderground v.1.15,2013-01-25 05:15:00,
2013-01-24 22:19:00,35.9,23.4,29.94,North,352,9.0,9.0,60,0.00,,,0.00,0,Wunderground v.1.15,2013-01-25 05:19:00,
2013-01-24 22:25:00,35.8,22.9,29.94,North,359,8.0,21.0,59,0.00,,,0.00,0,Wunderground v.1.15,2013-01-25 05:25:00,
2013-01-24 22:30:00,35.9,22.1,29.94,West,260,12.0,12.0,57,0.00,,,0.00,0,Wunderground v.1.15,2013-01-25 05:30:00,
2013-01-24 22:40:00,36.2,22.4,29.96,North,357,8.0,8.0,57,0.00,,,0.00,0,Wunderground v.1.15,2013-01-25 05:40:00,
2013-01-24 22:50:00,36.3,21.7,29.96,WSW,240,4.0,4.0,55,0.00,,,0.00,0,Wunderground v.1.15,2013-01-25 05:50:00,
2013-01-24 23:00:00,36.5,22.3,29.96,SW,219,6.0,6.0,56,0.00,,,0.00,0,Wunderground v.1.15,2013-01-25 06:00:00,
2013-01-24 23:05:00,36.5,22.3,29.94,South,181,5.0,7.0,56,0.00,,,0.00,0,Wunderground v.1.15,2013-01-25 06:05:00,
2013-01-24 23:15:00,36.3,22.9,29.94,SSW,193,6.0,6.0,58,0.00,,,0.00,0,Wunderground v.1.15,2013-01-25 06:15:00,
2013-01-24 23:25:00,36.0,22.6,29.95,SSW,192,7.0,10.0,58,0.00,,,0.00,0,Wunderground v.1.15,2013-01-25 06:25:00,
2013-01-24 23:35:00,35.9,21.3,29.95,ESE,120,10.0,15.0,55,0.00,,,0.00,0,Wunderground v.1.15,2013-01-25 06:35:00,
2013-01-24 23:40:00,36.0,21.8,29.95,SW,224,9.0,9.0,56,0.00,,,0.00,0,Wunderground v.1.15,2013-01-25 06:40:00,
2013-01-24 23:50:00,36.0,21.8,29.95,SSW,210,9.0,16.0,56,0.00,,,0.00,0,Wunderground v.1.15,2013-01-25 06:50:00,